Regional Weather Roundup
Issued by NWS

Home | Current Version | Previous Version | Graphics & Text | Print | Product List | Glossary On
Versions: 1 2 3 4 5 6 7 8 9 10 11 12 13 14 15 16 17 18 19 20 21 22 23 24 25 26 27 28 29 30 31 32 33 34 35 36 37 38 39 40 41 42 43 44 45 46 47 48 49 50
000
ASUS43 KBIS 201020
RWRND

NORTH DAKOTA REGIONAL WEATHER ROUNDUP
NATIONAL WEATHER SERVICE BISMARCK ND
500 AM CDT WED AUG 20 2014

NOTE: "FAIR" INDICATES FEW OR NO CLOUDS BELOW 12,000 FEET WITH NO
SIGNIFICANT WEATHER AND/OR OBSTRUCTIONS TO VISIBILITY.


NDZ001>003-009>011-017-201100-
NORTHWEST NORTH DAKOTA

CITY           SKY/WX    TMP DP  RH WIND       PRES   REMARKS
WILLISTON      MOCLDY    67  60  78 SE5       29.63S
MINOT          CLEAR     63  60  90 E5        29.67S
MINOT AFB      CLEAR     64  63  99 SE8       29.66S
$$

NDZ018>021-031>035-040>046-201100-
SOUTHWEST NORTH DAKOTA

CITY           SKY/WX    TMP DP  RH WIND       PRES   REMARKS
BISMARCK       CLEAR     66  61  84 E7        29.70S
DICKINSON      CLEAR     65  59  81 S9        29.66S
GARRISON         N/A     66  63  90 SE6       29.68F
HETTINGER ARPT MOCLDY    67  61  81 SE7       29.70S
$$

NDZ004>008-012>016-024-026-027-054-201100-
NORTHEAST NORTH DAKOTA

CITY           SKY/WX    TMP DP  RH WIND       PRES   REMARKS
GRAND FORKS    CLEAR     63  61  93 S5        29.76S
GRND FRKS AFB  CLEAR     63  63 100 SE5       29.77R
DEVILS LAKE    PTCLDY    68  61  77 SE7       29.73S
$$

NDZ022-023-025-028>030-036>039-047>053-201100-
SOUTHEAST NORTH DAKOTA

CITY           SKY/WX    TMP DP  RH WIND       PRES   REMARKS
FARGO          PTCLDY    67  62  84 SE8       29.78R
JAMESTOWN      CLEAR     65  62  90 SE8       29.75F
$$



USA.gov is the U.S. government's official web portal to all federal, state and local government web resources and services.